When you browse on this site, cookies collect data to enhance your experience and personalize the content and advertising you see.
Visit our Privacy Policy to learn more. By continuing to use the site, you agree to this use of cookies and data.
  • In Czech Republic
  • List of Countries
  • For 7 days
  • Water Temperature
  • Weather Map
  • Weather Widgets
  • user-avatar
    Login

    Hourly Weather San Vicente de Chucuri

    Today, 3 April, Friday

    Time Temperature Precipitation Wind Pressure Humidity
    00:00 +24°C° 1.5 mm 1 mps 698 mmHg 91%
    01:00 +23°C° 0 mm 1 mps 698 mmHg 92%
    02:00 +23°C° 1.6 mm 1 mps 698 mmHg 92%
    03:00 +23°C° 1.6 mm 1 mps 697 mmHg 92%
    04:00 +23°C° 1.6 mm 1 mps 697 mmHg 92%
    05:00 +23°C° 0.5 mm 1 mps 698 mmHg 91%
    06:00 +22°C° 0.5 mm 0 mps 698 mmHg 91%
    07:00 +23°C° 0 mm 0 mps 699 mmHg 89%
    08:00 +24°C° 0.6 mm 0 mps 699 mmHg 85%
    09:00 +27°C° 0.6 mm 1 mps 699 mmHg 82%
    10:00 +28°C° 0.6 mm 1 mps 699 mmHg 79%
    11:00 +29°C° 0.7 mm 1 mps 698 mmHg 77%
    12:00 +29°C° 0.7 mm 1 mps 697 mmHg 76%
    13:00 +30°C° 0.7 mm 1 mps 697 mmHg 74%
    14:00 +30°C° 0.5 mm 1 mps 696 mmHg 74%
    15:00 +29°C° 0.5 mm 1 mps 696 mmHg 75%
    16:00 +29°C° 0.5 mm 1 mps 696 mmHg 75%
    17:00 +28°C° 0.7 mm 1 mps 696 mmHg 80%
    18:00 +27°C° 0.7 mm 1 mps 696 mmHg 86%
    19:00 +25°C° 0.7 mm 1 mps 697 mmHg 91%
    20:00 +25°C° 1.7 mm 1 mps 697 mmHg 90%
    21:00 +25°C° 1.7 mm 1 mps 698 mmHg 90%
    22:00 +24°C° 1.7 mm 1 mps 698 mmHg 90%
    23:00 +24°C° 2.6 mm 1 mps 698 mmHg 91%

    Tomorrow, 4 April, Saturday

    Time Temperature Precipitation Wind Pressure Humidity
    00:00 +24°C° 2.6 mm 1 mps 698 mmHg 92%
    01:00 +24°C° 2.6 mm 1 mps 697 mmHg 93%
    02:00 +24°C° 2.6 mm 1 mps 697 mmHg 94%
    03:00 +22°C° 2.6 mm 0 mps 697 mmHg 94%
    04:00 +21°C° 2.6 mm 0 mps 697 mmHg 95%
    05:00 +22°C° 1.8 mm 0 mps 697 mmHg 95%
    06:00 +22°C° 1.8 mm 0 mps 698 mmHg 95%
    07:00 +22°C° 1.8 mm 0 mps 698 mmHg 95%
    08:00 +23°C° 0.3 mm 0 mps 698 mmHg 90%
    09:00 +26°C° 0.3 mm 1 mps 699 mmHg 85%
    10:00 +28°C° 0.3 mm 1 mps 699 mmHg 80%
    11:00 +29°C° 0.4 mm 1 mps 698 mmHg 76%
    12:00 +29°C° 0.4 mm 1 mps 697 mmHg 72%
    13:00 +30°C° 0.4 mm 2 mps 697 mmHg 68%
    14:00 +30°C° 0.1 mm 1 mps 696 mmHg 70%
    15:00 +30°C° 0.1 mm 1 mps 696 mmHg 71%
    16:00 +30°C° 0.1 mm 1 mps 695 mmHg 72%
    17:00 +28°C° 0.3 mm 1 mps 696 mmHg 78%
    18:00 +27°C° 0.3 mm 1 mps 696 mmHg 83%
    19:00 +25°C° 0.3 mm 1 mps 696 mmHg 89%
    20:00 +25°C° 0.4 mm 1 mps 697 mmHg 89%
    21:00 +25°C° 0.4 mm 1 mps 697 mmHg 88%
    22:00 +25°C° 0.4 mm 1 mps 698 mmHg 87%
    23:00 +25°C° 1.3 mm 1 mps 698 mmHg 89%

    Day after tomorrow, 5 April, Sunday

    Time Temperature Precipitation Wind Pressure Humidity
    00:00 +24°C° 1.3 mm 1 mps 697 mmHg 90%
    01:00 +22°C° 1.3 mm 0 mps 697 mmHg 92%
    02:00 +22°C° 1 mm 0 mps 697 mmHg 92%
    03:00 +22°C° 1 mm 0 mps 697 mmHg 93%
    04:00 +21°C° 1 mm 0 mps 697 mmHg 93%
    05:00 +22°C° 0.1 mm 0 mps 697 mmHg 92%
    06:00 +22°C° 0.1 mm 0 mps 698 mmHg 92%
    07:00 +23°C° 0.1 mm 0 mps 698 mmHg 91%
    08:00 +24°C° 0.3 mm 0 mps 698 mmHg 86%
    09:00 +28°C° 0.3 mm 1 mps 699 mmHg 80%
    10:00 +29°C° 0.3 mm 1 mps 699 mmHg 75%
    11:00 +30°C° 0.4 mm 1 mps 698 mmHg 74%
    12:00 +30°C° 0.4 mm 1 mps 697 mmHg 74%
    13:00 +30°C° 0.4 mm 1 mps 696 mmHg 73%
    14:00 +30°C° 0.2 mm 1 mps 696 mmHg 73%
    15:00 +30°C° 0.2 mm 1 mps 696 mmHg 72%
    16:00 +30°C° 0.2 mm 1 mps 696 mmHg 72%
    17:00 +29°C° 1.5 mm 1 mps 696 mmHg 78%
    18:00 +27°C° 1.5 mm 1 mps 696 mmHg 84%
    19:00 +26°C° 1.5 mm 1 mps 696 mmHg 90%
    20:00 +26°C° 3.1 mm 1 mps 697 mmHg 90%
    21:00 +25°C° 3.1 mm 1 mps 698 mmHg 91%
    22:00 +25°C° 3.1 mm 1 mps 698 mmHg 92%
    23:00 +25°C° 3.6 mm 1 mps 698 mmHg 92%

    6 April, Monday

    Time Temperature Precipitation Wind Pressure Humidity
    00:00 +24°C° 3.6 mm 1 mps 698 mmHg 93%
    01:00 +22°C° 3.6 mm 0 mps 697 mmHg 93%
    02:00 +22°C° 2.3 mm 0 mps 698 mmHg 94%
    03:00 +22°C° 2.3 mm 0 mps 698 mmHg 95%
    04:00 +22°C° 2.3 mm 0 mps 698 mmHg 96%
    05:00 +22°C° 0.9 mm 0 mps 698 mmHg 95%
    06:00 +22°C° 0.9 mm 0 mps 699 mmHg 95%
    07:00 +22°C° 0.9 mm 0 mps 699 mmHg 94%
    08:00 +23°C° 0.4 mm 0 mps 699 mmHg 92%
    09:00 +26°C° 0.4 mm 1 mps 700 mmHg 89%
    10:00 +27°C° 0.4 mm 1 mps 700 mmHg 86%
    11:00 +28°C° 0.2 mm 1 mps 699 mmHg 82%
    12:00 +29°C° 0.2 mm 1 mps 698 mmHg 78%
    13:00 +30°C° 0.2 mm 1 mps 698 mmHg 74%
    14:00 +30°C° 0 mm 1 mps 697 mmHg 75%
    15:00 +30°C° 0 mm 1 mps 697 mmHg 75%
    16:00 +29°C° 0 mm 1 mps 696 mmHg 75%
    17:00 +28°C° 0.3 mm 1 mps 697 mmHg 81%
    18:00 +27°C° 0.3 mm 1 mps 697 mmHg 86%
    19:00 +26°C° 0.3 mm 1 mps 698 mmHg 92%
    20:00 +26°C° 1.3 mm 1 mps 698 mmHg 91%
    21:00 +25°C° 1.3 mm 1 mps 698 mmHg 90%
    22:00 +25°C° 1.3 mm 1 mps 699 mmHg 89%
    23:00 +25°C° 1.7 mm 1 mps 699 mmHg 89%

    7 April, Tuesday

    Time Temperature Precipitation Wind Pressure Humidity
    00:00 +25°C° 1.7 mm 1 mps 698 mmHg 90%
    01:00 +24°C° 1.7 mm 1 mps 698 mmHg 90%
    02:00 +22°C° 0.1 mm 0 mps 698 mmHg 90%
    03:00 +22°C° 0.1 mm 0 mps 698 mmHg 90%
    04:00 +22°C° 0.1 mm 0 mps 698 mmHg 90%
    05:00 +22°C° 0.1 mm 0 mps 698 mmHg 89%
    06:00 +23°C° 0.1 mm 0 mps 698 mmHg 89%
    07:00 +23°C° 0.1 mm 0 mps 699 mmHg 88%
    08:00 +24°C° 0.4 mm 0 mps 699 mmHg 85%
    09:00 +28°C° 0.4 mm 1 mps 699 mmHg 81%
    10:00 +29°C° 0.4 mm 1 mps 700 mmHg 78%
    11:00 +30°C° 0.3 mm 1 mps 699 mmHg 74%
    12:00 +31°C° 0.3 mm 1 mps 698 mmHg 70%
    13:00 +32°C° 0.3 mm 2 mps 698 mmHg 66%
    14:00 +31°C° 0.1 mm 1 mps 697 mmHg 67%
    15:00 +31°C° 0.1 mm 1 mps 697 mmHg 67%
    16:00 +31°C° 0.1 mm 1 mps 697 mmHg 68%
    17:00 +29°C° 0.8 mm 1 mps 697 mmHg 73%
    18:00 +28°C° 0.8 mm 1 mps 697 mmHg 79%
    19:00 +26°C° 0.8 mm 1 mps 698 mmHg 84%
    20:00 +26°C° 0.8 mm 1 mps 698 mmHg 86%
    21:00 +26°C° 0.8 mm 1 mps 699 mmHg 87%
    22:00 +25°C° 0.8 mm 1 mps 699 mmHg 88%
    23:00 +25°C° 0.2 mm 1 mps 699 mmHg 88%

    8 April, Wednesday

    Time Temperature Precipitation Wind Pressure Humidity
    00:00 +25°C° 0.2 mm 1 mps 698 mmHg 88%
    01:00 +24°C° 0.2 mm 1 mps 698 mmHg 87%
    02:00 +24°C° 0.6 mm 1 mps 698 mmHg 88%
    03:00 +24°C° 0.6 mm 1 mps 697 mmHg 88%
    04:00 +23°C° 0.6 mm 1 mps 697 mmHg 89%
    05:00 +24°C° 0.2 mm 1 mps 698 mmHg 88%
    06:00 +25°C° 0.2 mm 1 mps 698 mmHg 87%
    07:00 +25°C° 0.2 mm 1 mps 699 mmHg 86%
    08:00 +27°C° 0.2 mm 1 mps 699 mmHg 82%
    09:00 +28°C° 0.2 mm 1 mps 699 mmHg 77%
    10:00 +30°C° 0.2 mm 1 mps 699 mmHg 73%
    11:00 +30°C° 0.2 mm 1 mps 699 mmHg 71%
    12:00 +31°C° 0.2 mm 1 mps 698 mmHg 68%
    13:00 +32°C° 0.2 mm 2 mps 697 mmHg 66%
    14:00 +31°C° 0.1 mm 2 mps 697 mmHg 67%
    15:00 +31°C° 0.1 mm 1 mps 696 mmHg 67%
    16:00 +31°C° 0.1 mm 1 mps 696 mmHg 68%
    17:00 +29°C° 0.8 mm 1 mps 696 mmHg 75%
    18:00 +28°C° 0.8 mm 1 mps 697 mmHg 82%
    19:00 +26°C° 0.8 mm 1 mps 697 mmHg 89%
    20:00 +25°C° 1.4 mm 1 mps 698 mmHg 89%
    21:00 +25°C° 1.4 mm 1 mps 698 mmHg 90%
    22:00 +25°C° 1.4 mm 1 mps 698 mmHg 90%
    23:00 +24°C° 3.2 mm 1 mps 698 mmHg 90%
    Show more